TimeEDT,TemperatureF,Dew PointF,Humidity,Sea Level PressureIn,VisibilityMPH,Wind Direction,Wind SpeedMPH,Gust SpeedMPH,PrecipitationIn,Events,Conditions,WindDirDegrees,DateUTC
12:53 AM,55.0,36.0,49,30.22,10.0,SW,3.5,-,0.00,Rain,Light Rain,230,2013-04-29 04:53:00
1:53 AM,51.1,44.1,77,30.21,10.0,Calm,Calm,-,0.00,Rain,Light Rain,0,2013-04-29 05:53:00
2:53 AM,50.0,46.0,86,30.20,10.0,Calm,Calm,-,0.00,,Overcast,0,2013-04-29 06:53:00
3:53 AM,50.0,46.0,86,30.19,10.0,Calm,Calm,-,0.01,Rain,Light Rain,0,2013-04-29 07:53:00
4:53 AM,48.9,46.9,93,30.19,8.0,Calm,Calm,-,0.01,Rain,Light Rain,0,2013-04-29 08:53:00
5:53 AM,50.0,46.9,89,30.19,9.0,Calm,Calm,-,0.00,,Overcast,0,2013-04-29 09:53:00
6:53 AM,52.0,46.0,80,30.20,10.0,SE,3.5,-,0.00,,Overcast,140,2013-04-29 10:53:00
7:53 AM,53.1,46.0,77,30.21,10.0,Calm,Calm,-,0.00,Rain,Light Rain,0,2013-04-29 11:53:00
8:49 AM,53.6,46.4,77,30.21,10.0,SE,6.9,-,0.00,,Overcast,140,2013-04-29 12:49:00
8:53 AM,54.0,46.0,75,30.21,10.0,SSE,6.9,-,0.00,,Overcast,150,2013-04-29 12:53:00
9:14 AM,53.6,46.4,77,30.21,10.0,South,4.6,-,N/A,,Overcast,170,2013-04-29 13:14:00
9:53 AM,54.0,46.0,75,30.21,10.0,Variable,3.5,-,0.00,Rain,Light Rain,0,2013-04-29 13:53:00
10:53 AM,54.0,45.0,72,30.21,10.0,South,9.2,19.6,0.01,Rain,Light Rain,180,2013-04-29 14:53:00
11:53 AM,54.0,44.1,69,30.21,10.0,SSE,4.6,-,0.00,Rain,Light Rain,160,2013-04-29 15:53:00
12:53 PM,52.0,45.0,77,30.21,8.0,Variable,5.8,17.3,0.00,Rain,Light Rain,0,2013-04-29 16:53:00
1:16 PM,51.8,44.6,76,30.20,9.0,SSE,5.8,-,0.00,Rain,Light Rain,160,2013-04-29 17:16:00
1:53 PM,52.0,46.0,80,30.20,10.0,ESE,4.6,-,0.01,,Overcast,120,2013-04-29 17:53:00
2:53 PM,53.1,46.0,77,30.19,10.0,SE,11.5,17.3,0.00,Rain,Light Rain,130,2013-04-29 18:53:00
3:04 PM,53.6,46.4,77,30.19,10.0,SE,5.8,-,0.00,Rain,Light Rain,130,2013-04-29 19:04:00
3:53 PM,53.1,46.9,80,30.19,10.0,Calm,Calm,-,0.01,,Overcast,0,2013-04-29 19:53:00
4:53 PM,53.1,46.9,80,30.18,6.0,SE,8.1,-,0.00,Rain,Light Rain,130,2013-04-29 20:53:00
5:53 PM,53.1,46.9,80,30.19,10.0,Calm,Calm,-,0.00,Rain,Light Rain,0,2013-04-29 21:53:00
6:49 PM,53.6,46.4,77,30.18,10.0,Calm,Calm,-,0.00,,Overcast,0,2013-04-29 22:49:00
6:53 PM,53.1,46.9,80,30.18,10.0,Variable,3.5,-,0.00,,Overcast,0,2013-04-29 22:53:00
7:53 PM,54.0,46.9,77,30.19,10.0,Calm,Calm,-,N/A,,Overcast,0,2013-04-29 23:53:00
8:26 PM,53.6,46.4,77,30.20,10.0,SE,3.5,-,0.00,,Overcast,130,2013-04-30 00:26:00
8:53 PM,53.1,46.0,77,30.21,10.0,SE,6.9,-,0.00,,Overcast,130,2013-04-30 00:53:00
9:53 PM,52.0,46.9,83,30.22,10.0,SSE,3.5,-,N/A,,Overcast,150,2013-04-30 01:53:00
10:53 PM,52.0,46.9,83,30.22,10.0,Variable,4.6,-,N/A,,Overcast,0,2013-04-30 02:53:00
11:53 PM,52.0,46.9,83,30.22,10.0,South,3.5,-,N/A,,Overcast,170,2013-04-30 03:53:00